Tracking 18852 objects as of 23-Nov-2017
HD Live streaming from Space Station
objects crossing your sky now

FENGYUN 1C DEB

Track FENGYUN 1C DEB now!
10-day predictions


NORAD ID: 32105
Int'l Code: 1999-025CQX
Perigee: 828.7 km
Apogee: 1,482.2 km
Inclination: 103.4 °
Period: 108.3 minutes
Semi major axis: 7526 km
RCS: 0.0182 m2 (small)
Launch date: May 10, 1999
Source: People's Republic of China (PRC)
Launch site: Taiyaun Space Center, China (TSC)

Note: This is SATELLITE DEBRIS
aabbcc
Your satellite tracking list
Your tracking list is empty




NASA's NSSDC Master Catalog

Two Line Element Set (TLE):
1 32105U 99025CQX 17321.52870153 +.00000801 +00000-0 +11132-2 0  9990
2 32105 103.4455 078.2770 0434145 015.4378 345.9509 13.29595142204456
Source of the keplerian elements: AFSPC